Wind_Speed
33 29 29 26 23 20 17 15 14 15 15 14 14 13 12 12 10 9 9 10 10 9 9 10 9 7 5 4 3 3 2 4 6 8 11 12 10 8 7 5 4 4 5
31 31 28 26 22 19 16 14 13 15 15 14 12 12 11 11 9 8 9 9 10 10 11 10 8 7 7 7 6 5 5 3 4 7 10 14 13 9 7 5 4 4 5
32 30 29 26 22 19 17 16 15 15 14 13 12 12 12 11 11 11 11 11 10 9 9 8 6 7 8 8 8 8 8 7 6 7 11 15 15 11 8 6 5 5 5
30 28 28 25 20 18 16 17 17 17 15 14 14 14 13 12 13 13 13 12 11 10 9 7 6 8 9 10 11 10 8 8 8 9 11 14 15 11 8 7 6 5 4
29 28 26 22 18 16 17 18 18 16 15 15 15 15 15 14 14 14 14 12 10 8 8 7 7 9 12 12 14 11 8 9 10 9 11 14 13 11 8 7 5 3 4
29 27 23 20 17 18 19 18 17 16 15 15 16 15 15 15 15 13 12 10 9 8 8 8 8 13 14 13 14 12 12 13 12 13 13 12 12 10 8 6 4 5 7
29 25 22 18 19 19 19 17 16 16 15 15 15 15 14 13 12 10 9 9 8 8 8 10 9 8 12 12 14 14 13 13 15 16 15 13 12 9 8 7 8 8 8
26 24 20 19 20 19 17 16 15 15 15 15 15 14 14 12 10 10 11 10 8 7 9 9 10 10 11 12 12 15 14 14 17 16 16 13 12 11 10 8 8 8 9
26 22 19 20 20 18 17 17 16 16 15 15 14 14 12 9 10 12 11 10 11 13 14 12 11 12 14 15 15 13 14 14 14 14 14 13 11 10 9 8 8 9 9
25 21 19 20 19 18 18 17 17 17 15 14 14 12 11 10 10 11 12 11 12 13 13 15 12 11 14 15 16 16 13 13 13 13 12 12 12 10 9 8 8 8 7
26 21 21 21 20 20 19 17 16 16 14 13 13 13 12 11 8 10 12 13 11 12 11 11 11 10 14 14 15 15 12 11 11 12 12 11 12 11 10 8 8 6 6
26 23 24 23 21 20 19 17 16 15 13 13 12 13 12 11 10 9 11 11 10 11 9 7 9 7 11 13 13 11 10 8 9 9 9 10 10 10 10 8 6 5 5
24 25 26 24 22 19 18 16 15 14 14 10 11 13 13 12 10 8 10 9 8 9 9 7 5 7 8 7 6 9 8 5 7 6 8 10 8 9 9 8 6 5 5
25 26 26 25 22 20 19 16 14 12 12 12 11 13 11 12 7 6 8 10 11 8 8 5 3 2 6 5 9 6 8 4 7 7 8 8 7 7 7 7 7 6 5
26 28 27 26 23 21 19 17 15 13 11 14 13 11 8 10 7 4 5 8 7 7 6 6 4 1 3 4 4 3 6 8 7 9 10 7 5 5 5 6 6 5 5
27 28 28 26 24 21 19 17 16 15 12 12 12 9 11 9 7 4 6 8 8 6 7 10 9 8 4 5 3 3 6 8 9 9 10 8 6 5 5 4 5 3 4
26 28 29 27 25 22 19 17 16 15 13 12 13 11 10 10 8 5 4 2 6 6 6 7 10 9 10 10 4 10 11 11 9 8 9 8 7 5 4 5 4 3 3
28 29 29 28 26 23 20 17 15 14 15 15 14 10 9 8 6 6 2 4 3 6 5 4 6 6 6 9 6 15 15 11 7 8 7 5 7 6 4 3 3 2 2
28 29 30 29 27 25 22 19 15 14 17 16 14 11 8 8 6 6 3 3 5 4 4 4 7 6 8 7 8 15 13 11 11 9 7 4 2 4 6 5 4 3 3
26 29 31 30 28 25 23 20 19 15 17 16 13 11 8 7 6 5 4 2 4 3 3 4 4 7 7 9 10 15 14 12 14 13 11 9 8 3 3 4 5 5 5
28 29 34 31 30 28 26 24 22 17 15 14 12 10 9 7 7 5 3 3 2 4 5 4 6 7 9 12 8 14 14 12 14 13 12 10 9 8 7 4 2 5 6
29 30 31 30 31 28 26 22 19 16 13 12 13 12 9 7 7 9 6 4 3 3 6 6 6 7 7 7 10 9 11 11 13 13 10 7 8 8 7 8 6 3 0
30 31 31 31 30 28 25 24 22 21 20 18 15 12 9 8 8 9 7 5 4 4 5 6 8 9 7 8 11 9 10 11 12 12 10 8 9 9 7 8 7 5 4
27 28 28 29 29 28 26 25 24 22 20 15 13 13 12 12 10 8 8 7 6 4 5 6 9 10 9 9 10 11 11 11 12 12 11 10 10 10 8 8 6 7 6
25 26 27 28 28 27 26 25 24 22 19 17 16 15 15 14 12 9 8 9 8 7 7 7 8 10 9 9 9 10 9 9 9 10 11 11 10 9 8 7 6 7 7
21 25 25 27 29 28 27 26 26 24 22 21 20 19 16 15 14 12 10 10 10 9 8 9 9 10 10 9 8 9 8 9 10 10 11 11 10 10 9 8 6 6 7
Wind_Direction
151 146 143 138 134 129 122 122 121 114 111 109 110 111 107 103 103 108 110 104 96 89 96 109 107 96 86 97 107 130 194 209 190 178 182 175 165 152 143 133 115 101 90
152 147 141 138 136 134 130 129 124 117 119 116 112 109 110 108 112 122 118 110 104 96 100 106 94 67 69 90 96 89 98 121 167 171 172 171 166 161 147 136 129 108 92
155 147 145 143 144 140 138 135 133 128 126 118 115 115 113 113 111 113 116 120 113 106 105 100 79 58 69 85 85 82 90 98 135 154 155 161 162 157 152 147 124 103 89
157 152 147 147 146 143 141 139 139 138 134 129 126 121 117 117 118 121 122 119 116 114 106 96 83 87 86 85 80 88 77 71 117 133 141 156 156 155 142 132 115 104 93
158 153 149 149 147 146 140 143 141 141 138 134 126 122 117 116 120 124 123 118 110 101 94 89 100 102 92 92 91 90 72 74 96 118 136 150 153 149 140 132 116 103 95
160 155 153 149 149 143 143 145 142 142 142 136 126 123 122 121 121 120 114 106 98 86 76 77 96 92 90 96 100 86 86 95 95 108 129 141 140 139 134 126 121 112 105
161 158 154 151 145 145 146 146 144 142 137 134 130 128 125 126 125 116 105 96 87 77 82 88 96 96 90 94 100 100 92 98 101 107 119 127 124 120 121 116 111 108 106
165 160 157 153 148 151 148 145 142 139 138 135 133 134 135 134 126 111 102 91 75 73 85 98 107 104 108 108 111 109 106 106 103 103 107 108 111 114 113 107 107 107 105
167 163 160 156 154 153 149 148 144 142 138 137 141 141 135 128 121 112 102 89 79 77 83 96 102 109 113 113 109 111 113 112 104 104 104 105 104 100 102 105 110 107 107
168 166 163 158 156 151 149 146 147 141 142 144 139 135 132 128 116 110 102 96 90 76 85 82 75 106 121 119 108 101 113 120 112 106 106 105 103 97 94 105 108 104 110
170 170 162 160 155 153 150 150 151 143 146 145 141 136 137 123 110 102 101 98 84 65 94 82 82 107 125 128 115 107 103 115 112 111 113 115 111 102 96 104 110 111 110
172 171 163 160 158 157 154 158 154 151 150 147 143 139 131 122 110 97 93 90 90 62 80 81 73 86 127 126 129 123 116 100 104 107 109 111 112 111 105 106 115 120 117
172 173 165 161 163 162 159 160 157 154 154 154 151 140 126 118 117 104 103 94 96 79 75 76 88 95 109 121 157 141 127 122 126 117 115 111 122 117 113 104 99 99 100
176 174 169 164 167 167 161 164 163 162 169 162 157 146 131 126 114 109 84 71 100 100 93 89 143 93 80 104 96 116 170 175 121 124 130 121 122 107 111 106 103 97 97
180 176 173 169 172 173 171 170 171 165 164 165 157 154 134 124 110 99 76 59 67 80 107 101 119 112 71 47 42 88 168 162 124 139 140 135 126 110 113 92 117 99 101
183 180 178 175 177 180 182 179 176 172 173 168 170 165 132 113 119 100 73 57 42 54 85 75 77 67 46 86 38 47 141 146 124 123 146 160 157 138 129 115 108 102 103
186 185 182 180 185 185 188 191 190 180 183 184 186 174 130 117 122 100 42 49 55 86 88 55 75 58 71 95 61 71 119 123 104 111 147 170 174 161 141 131 134 124 129
193 191 186 186 190 191 193 201 202 195 194 196 187 177 140 128 127 104 60 43 83 70 91 58 83 118 68 105 104 91 93 104 107 119 136 140 179 175 181 168 161 156 151
196 196 192 192 196 196 198 206 215 210 203 198 190 181 158 143 138 127 121 71 55 51 90 87 66 99 128 91 118 105 86 72 100 104 118 133 148 183 198 198 201 207 224
197 200 202 195 197 201 201 205 212 204 201 190 189 191 179 173 156 146 159 115 44 61 82 100 100 102 108 113 105 114 105 98 108 96 93 83 84 126 170 215 218 217 221
197 204 199 197 196 200 199 201 201 188 194 185 192 203 199 189 157 154 155 125 114 72 76 99 95 118 114 99 111 110 113 118 104 85 73 71 68 75 74 101 196 243 245
184 192 197 195 198 199 199 201 205 204 199 195 189 195 211 195 169 174 179 156 119 92 79 98 106 128 131 107 104 111 113 109 102 89 81 91 92 74 84 75 90 83 181
185 189 194 195 197 196 197 199 204 205 206 205 199 199 208 221 191 177 176 169 145 108 107 112 105 106 103 108 117 107 95 90 88 92 95 96 96 93 94 83 72 83 80
188 185 193 194 198 197 201 200 204 211 213 207 197 205 212 219 210 203 179 178 165 146 141 123 112 106 107 112 110 108 102 93 86 80 83 99 103 103 101 91 75 75 73
199 194 192 196 198 200 201 206 208 210 213 217 216 214 213 210 211 208 199 185 176 175 167 149 128 120 117 111 105 100 94 89 74 80 88 85 88 100 102 91 82 73 62
198 202 197 204 199 201 204 209 214 212 211 213 218 218 213 211 211 205 195 187 187 181 175 171 152 139 139 135 125 109 95 84 83 77 78 78 79 81 80 72 56 55 55
Height
3164 3167 3170 3173 3176 3178 3180 3182 3183 3185 3186 3188 3189 3190 3191 3191 3192 3194 3195 3195 3195 3195 3196 3196 3196 3196 3195 3195 3195 3196 3195 3196 3197 3198 3199 3201 3202 3203 3204 3205 3205 3206 3206
3167 3169 3172 3175 3179 3181 3183 3184 3186 3187 3189 3191 3191 3192 3193 3193 3195 3195 3196 3197 3197 3197 3197 3197 3198 3198 3197 3196 3196 3196 3196 3196 3196 3197 3199 3201 3203 3204 3205 3206 3206 3207 3207
3170 3172 3175 3178 3182 3184 3186 3188 3189 3189 3192 3193 3194 3194 3195 3196 3197 3198 3199 3199 3199 3199 3199 3198 3199 3198 3197 3197 3197 3197 3197 3197 3197 3198 3200 3201 3203 3206 3206 3207 3207 3208 3208
3173 3175 3178 3181 3184 3186 3188 3190 3191 3193 3194 3195 3196 3197 3197 3198 3199 3200 3200 3201 3201 3201 3200 3199 3199 3198 3198 3198 3198 3198 3198 3198 3198 3199 3201 3203 3204 3206 3207 3208 3209 3209 3210
3175 3178 3181 3184 3186 3188 3190 3192 3193 3195 3197 3198 3199 3199 3200 3201 3202 3202 3202 3202 3202 3202 3202 3201 3201 3200 3200 3200 3200 3201 3200 3200 3200 3201 3202 3204 3207 3208 3210 3210 3211 3211 3211
3176 3180 3183 3186 3188 3190 3192 3193 3195 3197 3199 3200 3201 3202 3202 3203 3204 3204 3205 3204 3204 3203 3203 3203 3203 3203 3202 3202 3203 3203 3203 3203 3202 3203 3205 3207 3209 3211 3211 3212 3212 3212 3212
3177 3181 3184 3187 3189 3192 3193 3195 3197 3199 3201 3202 3203 3204 3205 3205 3206 3206 3206 3206 3206 3204 3204 3205 3205 3205 3206 3205 3205 3205 3206 3206 3206 3207 3208 3210 3211 3212 3213 3214 3214 3214 3214
3180 3183 3186 3188 3191 3193 3196 3198 3200 3201 3203 3204 3205 3206 3206 3207 3208 3208 3208 3208 3207 3206 3206 3206 3206 3207 3207 3207 3207 3207 3208 3209 3209 3210 3210 3212 3213 3214 3214 3215 3215 3215 3215
3181 3185 3187 3189 3192 3195 3197 3199 3201 3203 3205 3206 3207 3208 3208 3209 3210 3210 3209 3209 3209 3208 3208 3207 3208 3208 3208 3209 3210 3210 3210 3211 3211 3212 3212 3213 3214 3215 3216 3216 3216 3216 3216
3183 3186 3189 3191 3194 3197 3199 3201 3204 3205 3207 3208 3209 3210 3211 3211 3212 3212 3211 3211 3212 3211 3210 3210 3210 3210 3210 3211 3212 3212 3213 3212 3213 3214 3215 3215 3216 3217 3218 3218 3218 3218 3218
3183 3186 3190 3193 3196 3198 3200 3203 3206 3206 3208 3210 3211 3212 3213 3213 3215 3215 3214 3213 3213 3213 3213 3213 3212 3212 3212 3213 3214 3214 3214 3214 3214 3215 3216 3216 3217 3217 3218 3219 3219 3219 3220
3183 3186 3190 3194 3197 3200 3202 3205 3207 3208 3210 3212 3213 3214 3215 3215 3216 3218 3216 3215 3215 3215 3215 3215 3215 3214 3214 3214 3215 3215 3216 3216 3216 3217 3218 3218 3218 3218 3219 3220 3220 3220 3221
3185 3188 3191 3195 3198 3201 3204 3207 3209 3210 3212 3214 3215 3216 3216 3216 3218 3219 3219 3218 3216 3217 3216 3215 3215 3215 3216 3217 3216 3217 3218 3218 3218 3218 3219 3219 3220 3220 3221 3221 3222 3223 3223
3184 3189 3192 3195 3199 3202 3205 3208 3210 3211 3213 3214 3216 3218 3218 3218 3219 3220 3220 3220 3219 3219 3218 3217 3216 3216 3217 3218 3217 3218 3218 3218 3218 3219 3220 3220 3222 3222 3222 3222 3223 3224 3224
3185 3188 3192 3196 3199 3202 3206 3209 3210 3212 3213 3214 3217 3219 3219 3219 3220 3221 3221 3220 3220 3221 3220 3219 3218 3218 3218 3218 3218 3217 3218 3219 3220 3220 3221 3222 3223 3223 3223 3223 3223 3224 3225
3185 3188 3192 3196 3200 3203 3206 3209 3211 3213 3214 3216 3218 3219 3220 3220 3221 3223 3222 3222 3221 3220 3220 3219 3219 3218 3218 3218 3218 3217 3217 3220 3220 3220 3221 3223 3223 3223 3224 3224 3225 3225 3226
3185 3188 3191 3195 3199 3202 3206 3209 3212 3213 3215 3218 3219 3221 3221 3221 3223 3224 3224 3223 3223 3221 3221 3221 3220 3219 3219 3219 3219 3218 3217 3219 3220 3220 3221 3223 3224 3224 3225 3225 3226 3226 3226
3184 3187 3191 3194 3198 3202 3206 3209 3212 3214 3216 3218 3220 3221 3221 3222 3224 3224 3225 3225 3224 3223 3223 3222 3221 3221 3220 3220 3221 3219 3219 3220 3220 3221 3223 3224 3224 3225 3226 3225 3226 3226 3227
3182 3186 3189 3192 3197 3201 3204 3208 3211 3214 3216 3218 3220 3221 3221 3223 3224 3225 3226 3226 3225 3224 3224 3224 3222 3223 3223 3222 3221 3221 3221 3221 3222 3223 3224 3225 3224 3225 3224 3225 3225 3226 3227
3180 3183 3187 3191 3195 3199 3203 3206 3209 3212 3215 3217 3219 3221 3221 3223 3224 3225 3227 3227 3226 3226 3224 3224 3224 3224 3224 3223 3222 3223 3223 3224 3224 3225 3225 3225 3224 3224 3225 3224 3224 3226 3226
3176 3180 3183 3188 3192 3196 3199 3203 3207 3211 3215 3217 3219 3221 3221 3222 3223 3225 3227 3227 3227 3227 3226 3225 3224 3225 3225 3224 3224 3226 3225 3226 3226 3226 3226 3226 3226 3226 3225 3224 3224 3226 3227
3173 3177 3181 3186 3190 3195 3198 3203 3206 3210 3213 3216 3218 3220 3221 3222 3224 3225 3227 3228 3228 3228 3227 3226 3226 3226 3227 3227 3227 3227 3228 3229 3228 3227 3227 3227 3227 3227 3226 3225 3226 3225 3225
3169 3174 3179 3184 3189 3192 3197 3200 3204 3206 3209 3212 3216 3219 3221 3222 3224 3226 3227 3228 3228 3228 3228 3228 3228 3227 3228 3229 3229 3230 3230 3230 3230 3229 3229 3229 3228 3227 3227 3227 3227 3227 3226
3168 3171 3178 3182 3186 3189 3193 3197 3201 3205 3208 3212 3215 3218 3219 3221 3223 3225 3226 3227 3228 3229 3229 3229 3229 3229 3230 3231 3232 3232 3232 3232 3232 3232 3231 3230 3229 3229 3229 3228 3228 3228 3228
3165 3168 3173 3178 3182 3186 3189 3194 3198 3202 3207 3211 3213 3215 3217 3219 3222 3224 3226 3227 3228 3229 3230 3230 3230 3231 3232 3233 3234 3235 3235 3235 3235 3234 3233 3233 3232 3231 3231 3230 3230 3228 3228
3161 3165 3168 3174 3177 3181 3186 3190 3195 3199 3204 3208 3211 3213 3215 3218 3220 3222 3224 3226 3227 3228 3230 3231 3231 3233 3234 3235 3236 3237 3237 3237 3237 3236 3236 3236 3235 3235 3233 3233 3232 3231 3229